TimeMDT,TemperatureF,Dew PointF,Humidity,Sea Level PressureIn,VisibilityMPH,Wind Direction,Wind SpeedMPH,Gust SpeedMPH,PrecipitationIn,Events,Conditions,WindDirDegrees,DateUTC
12:15 AM,65.8,63.5,92,30.23,10.0,NE,3.5,-,N/A,,Drizzle,50,2013-09-12 06:15:00
12:35 AM,66.2,63.9,92,30.23,10.0,Calm,Calm,-,N/A,,Overcast,0,2013-09-12 06:35:00
12:55 AM,65.8,63.9,93,30.23,10.0,ENE,3.5,-,N/A,,Mostly Cloudy,70,2013-09-12 06:55:00
1:15 AM,66.2,64.0,93,30.24,10.0,East,4.6,-,N/A,,Mostly Cloudy,80,2013-09-12 07:15:00
1:35 AM,66.2,64.2,93,30.24,7.0,ENE,4.6,-,N/A,,Overcast,60,2013-09-12 07:35:00
1:55 AM,66.2,63.9,92,30.25,10.0,ESE,3.5,-,N/A,,Overcast,110,2013-09-12 07:55:00
2:15 AM,66.0,63.7,92,30.24,10.0,East,3.5,-,N/A,,Overcast,100,2013-09-12 08:15:00
2:35 AM,65.8,63.7,93,30.24,7.0,Calm,Calm,-,N/A,,Overcast,0,2013-09-12 08:35:00
2:55 AM,65.7,63.5,93,30.24,7.0,Calm,Calm,-,N/A,,Overcast,0,2013-09-12 08:55:00
3:15 AM,65.7,63.5,93,30.24,7.0,Calm,Calm,-,N/A,,Overcast,0,2013-09-12 09:15:00
3:35 AM,65.7,63.7,93,30.25,7.0,NE,3.5,-,N/A,,Overcast,50,2013-09-12 09:35:00
3:55 AM,65.8,63.9,93,30.25,7.0,Calm,Calm,-,N/A,,Overcast,0,2013-09-12 09:55:00
4:15 AM,65.7,63.9,94,30.24,5.0,Calm,Calm,-,N/A,,Drizzle,0,2013-09-12 10:15:00
4:35 AM,65.5,63.7,94,30.24,7.0,Calm,Calm,-,N/A,,Overcast,0,2013-09-12 10:35:00
4:55 AM,65.5,63.5,93,30.25,7.0,Calm,Calm,-,N/A,,Overcast,0,2013-09-12 10:55:00
5:15 AM,65.3,63.5,94,30.25,7.0,Calm,Calm,-,N/A,,Overcast,0,2013-09-12 11:15:00
5:35 AM,64.4,62.6,94,30.25,5.0,NNE,3.5,-,N/A,,Mostly Cloudy,30,2013-09-12 11:35:00
5:55 AM,63.7,62.1,94,30.26,5.0,NNE,4.6,-,N/A,,Mostly Cloudy,20,2013-09-12 11:55:00
6:15 AM,63.5,61.9,94,30.26,5.0,NNE,4.6,-,0.01,,Mostly Cloudy,30,2013-09-12 12:15:00
6:35 AM,63.7,61.9,94,30.27,5.0,NE,4.6,-,0.01,,Mostly Cloudy,40,2013-09-12 12:35:00
6:55 AM,64.4,62.6,94,30.27,5.0,ENE,3.5,-,0.01,,Mostly Cloudy,60,2013-09-12 12:55:00
7:15 AM,64.8,62.4,92,30.28,7.0,NE,3.5,-,N/A,,Mostly Cloudy,50,2013-09-12 13:15:00
7:35 AM,64.8,62.1,91,30.28,7.0,ENE,4.6,-,N/A,,Overcast,60,2013-09-12 13:35:00
7:55 AM,65.5,62.6,90,30.29,10.0,ESE,4.6,-,N/A,,Overcast,110,2013-09-12 13:55:00
8:15 AM,65.3,61.7,88,30.30,10.0,East,5.8,-,N/A,,Overcast,90,2013-09-12 14:15:00
8:35 AM,66.6,62.4,86,30.30,10.0,East,8.1,-,N/A,,Mostly Cloudy,90,2013-09-12 14:35:00
8:55 AM,66.7,62.4,86,30.30,10.0,East,11.5,-,N/A,,Mostly Cloudy,80,2013-09-12 14:55:00
9:15 AM,67.5,62.6,84,30.30,10.0,East,11.5,-,N/A,,Mostly Cloudy,90,2013-09-12 15:15:00
9:35 AM,68.7,63.1,82,30.30,10.0,East,10.4,-,N/A,,Overcast,100,2013-09-12 15:35:00
9:55 AM,69.3,63.0,80,30.31,10.0,East,12.7,-,N/A,,Overcast,100,2013-09-12 15:55:00
10:15 AM,69.4,62.2,78,30.31,10.0,East,12.7,18.4,N/A,,Overcast,90,2013-09-12 16:15:00
10:35 AM,70.3,62.6,76,30.31,10.0,East,12.7,18.4,N/A,,Mostly Cloudy,100,2013-09-12 16:35:00
10:55 AM,70.9,62.2,74,30.31,10.0,ESE,11.5,19.6,N/A,,Mostly Cloudy,110,2013-09-12 16:55:00
11:15 AM,73.4,61.7,67,30.30,10.0,East,13.8,-,N/A,,Mostly Cloudy,100,2013-09-12 17:15:00
11:35 AM,74.7,60.6,61,30.30,10.0,East,13.8,-,N/A,,Overcast,100,2013-09-12 17:35:00
11:55 AM,76.1,58.6,55,30.30,10.0,ESE,15.0,19.6,N/A,,Mostly Cloudy,110,2013-09-12 17:55:00
12:15 PM,75.9,57.9,54,30.29,10.0,ESE,13.8,18.4,N/A,,Clear,110,2013-09-12 18:15:00
12:35 PM,76.8,57.6,51,30.28,10.0,East,12.7,21.9,N/A,,Clear,100,2013-09-12 18:35:00
12:55 PM,76.6,55.9,49,30.28,10.0,East,12.7,-,N/A,,Clear,90,2013-09-12 18:55:00
1:15 PM,77.2,56.1,48,30.27,10.0,East,13.8,19.6,N/A,,Scattered Clouds,90,2013-09-12 19:15:00
1:35 PM,79.0,57.6,48,30.27,10.0,East,15.0,20.7,N/A,,Clear,100,2013-09-12 19:35:00
1:55 PM,79.2,56.3,45,30.26,10.0,East,17.3,-,N/A,,Scattered Clouds,100,2013-09-12 19:55:00
2:15 PM,78.6,55.2,44,30.25,10.0,East,17.3,23.0,N/A,,Scattered Clouds,100,2013-09-12 20:15:00
2:35 PM,78.8,50.2,37,30.25,10.0,SE,15.0,20.7,N/A,,Clear,130,2013-09-12 20:35:00
2:55 PM,80.1,52.2,38,30.24,10.0,ESE,19.6,26.5,N/A,,Scattered Clouds,110,2013-09-12 20:55:00
3:15 PM,80.4,50.5,35,30.24,10.0,East,15.0,20.7,N/A,,Clear,90,2013-09-12 21:15:00
3:35 PM,81.1,50.5,34,30.23,10.0,East,17.3,21.9,N/A,,Scattered Clouds,100,2013-09-12 21:35:00
3:55 PM,80.6,50.2,35,30.24,10.0,ESE,16.1,21.9,N/A,,Scattered Clouds,110,2013-09-12 21:55:00
4:15 PM,79.7,50.0,35,30.22,10.0,SE,13.8,-,N/A,,Clear,130,2013-09-12 22:15:00
4:35 PM,79.9,49.3,34,30.22,10.0,SE,16.1,20.7,N/A,,Scattered Clouds,140,2013-09-12 22:35:00
4:55 PM,79.7,50.0,35,30.22,10.0,ESE,12.7,23.0,N/A,,Scattered Clouds,120,2013-09-12 22:55:00
5:15 PM,77.4,57.2,50,30.23,10.0,SSE,11.5,16.1,N/A,,Scattered Clouds,150,2013-09-12 23:15:00
5:35 PM,76.1,58.8,55,30.23,10.0,SE,10.4,-,N/A,,Scattered Clouds,140,2013-09-12 23:35:00
5:55 PM,74.7,59.5,59,30.23,10.0,SSE,10.4,-,N/A,,Scattered Clouds,150,2013-09-12 23:55:00
6:15 PM,73.4,59.0,61,30.23,10.0,SSE,9.2,-,N/A,,Scattered Clouds,160,2013-09-13 00:15:00
6:35 PM,72.3,58.5,62,30.23,10.0,SSE,8.1,-,N/A,,Scattered Clouds,160,2013-09-13 00:35:00
6:55 PM,71.1,58.5,64,30.23,10.0,South,4.6,-,N/A,,Scattered Clouds,170,2013-09-13 00:55:00
7:15 PM,70.2,59.0,68,30.23,10.0,SE,4.6,-,N/A,,Mostly Cloudy,140,2013-09-13 01:15:00
7:35 PM,68.9,59.0,71,30.23,10.0,SE,3.5,-,N/A,,Scattered Clouds,140,2013-09-13 01:35:00
7:55 PM,67.8,59.2,74,30.24,10.0,SSE,3.5,-,N/A,,Scattered Clouds,160,2013-09-13 01:55:00
8:15 PM,67.6,59.2,74,30.25,10.0,Calm,Calm,-,N/A,,Mostly Cloudy,0,2013-09-13 02:15:00
8:35 PM,67.5,59.9,77,30.25,10.0,SSE,3.5,-,N/A,,Overcast,160,2013-09-13 02:35:00
8:55 PM,68.0,59.9,75,30.25,10.0,Calm,Calm,-,N/A,,Overcast,0,2013-09-13 02:55:00
9:15 PM,68.0,60.4,77,30.25,10.0,SSE,4.6,-,N/A,,Overcast,160,2013-09-13 03:15:00
9:35 PM,67.6,61.5,81,30.26,10.0,South,5.8,-,N/A,,Overcast,170,2013-09-13 03:35:00
9:55 PM,67.6,62.2,83,30.25,10.0,SSE,4.6,-,N/A,,Overcast,160,2013-09-13 03:55:00
10:15 PM,67.6,62.8,84,30.25,10.0,ESE,4.6,-,N/A,,Overcast,110,2013-09-13 04:15:00
10:35 PM,67.5,62.8,85,30.25,10.0,Calm,Calm,-,N/A,,Overcast,0,2013-09-13 04:35:00
10:55 PM,67.3,62.8,85,30.25,10.0,East,4.6,-,N/A,,Overcast,100,2013-09-13 04:55:00
11:15 PM,67.1,62.6,85,30.25,10.0,East,5.8,-,N/A,,Overcast,100,2013-09-13 05:15:00
11:35 PM,67.1,62.8,86,30.25,10.0,East,5.8,-,N/A,,Overcast,100,2013-09-13 05:35:00
11:55 PM,67.1,61.9,83,30.25,10.0,ESE,5.8,-,N/A,,Overcast,120,2013-09-13 05:55:00